Regional Weather Roundup
Issued by NWS

Home | Current Version | Previous Version | Graphics & Text | Print | Product List | Glossary On
Versions: 1 2 3 4 5 6 7 8 9 10 11 12 13 14 15 16 17 18 19 20 21 22 23 24 25 26 27 28 29 30 31 32 33 34 35 36 37 38 39 40 41 42 43 44 45 46 47 48 49 50
000
ASUS43 KLMK 231302
RWRKY
KENTUCKY REGIONAL WEATHER ROUNDUP
NATIONAL WEATHER SERVICE LOUISVILLE KY
900 AM EDT SUN APR 23 2017

NOTE "FAIR" INDICATES FEW OR NO CLOUDS BELOW 12,000 FEET
WITH NO SIGNIFICANT WEATHER AND/OR OBSTRUCTIONS TO VISIBILITY.

KYZ001>023-026-027-061>063-070>075-231400-
WESTERN AND SOUTH CENTRAL KENTUCKY

CITY           SKY/WX    TMP DP  RH WIND       PRES   REMARKS
PADUCAH        CLOUDY    49  38  65 N13       29.96R
HENDERSON      MOSUNNY   49  40  71 NE17      29.97F
OWENSBORO      CLOUDY    48  39  71 NE14      29.96F
HOPKINSVILLE   CLOUDY    48  46  94 N14       29.89R
BOWLING GREEN  LGT RAIN  49  47  93 NE10      29.90R
GLASGOW        NOT AVBL
$$

KYZ024-025-028>034-038-045-046-053-231400-
NORTH CENTRAL KENTUCKY

CITY           SKY/WX    TMP DP  RH WIND       PRES   REMARKS
LOUISVILLE/SDF CLOUDY    50  38  63 NE12      29.98R
LOUISVILLE/LOU CLOUDY    50  37  61 N8        29.99R
FORT KNOX      CLOUDY    47  38  69 NE10G20   29.94F
$$

KYZ035>037-039>044-047>052-055>060-089>105-231400-
NORTHEAST KENTUCKY

CITY           SKY/WX    TMP DP  RH WIND       PRES   REMARKS
LEXINGTON      CLOUDY    46  37  71 NE16      29.97R
COVINGTON      MOSUNNY   48  37  65 NE14      30.01F
FRANKFORT      CLOUDY    47  35  63 NE14G21   29.96R
$$

KYZ054-064>069-076>088-106>120-231400-
SOUTHEAST KENTUCKY

CITY           SKY/WX    TMP DP  RH WIND       PRES   REMARKS
JACKSON        LGT RAIN  46  44  93 CALM      29.93F FOG
LONDON         LGT RAIN  47  45  93 NE8       29.90S
SOMERSET       RAIN      46  46 100 E7        29.92R
MIDDLESBORO    RAIN      51  51 100 CALM      29.90R
MONTICELLO     LGT RAIN  48  47  96 N6        29.91S
$$




USA.gov is the U.S. government's official web portal to all federal, state and local government web resources and services.